owner,sensor,date,latitude,longitude,vertical_datum,direction_of_sea_water_velocity,sea_water_speed,upward_sea_water_velocity,qcFlag 
TABS,ioos:station:wmo:42049:1,2014-09-01T00:00:00Z,28.3507,-96.0058,2.0,266.2636916,8.287611236,-99999.0,'11133222,11111222,99999999' 
TABS,ioos:station:wmo:42049:1,2014-09-01T00:30:00Z,28.3507,-96.0058,2.0,257.1210148,13.32520169,-99999.0,'11111222,11111222,99999999' 
TABS,ioos:station:wmo:42049:1,2014-09-01T01:00:00Z,28.3507,-96.0058,2.0,255.6299008,15.83541916,-99999.0,'11111222,11111222,99999999' 
TABS,ioos:station:wmo:42049:1,2014-09-01T01:30:00Z,28.3507,-96.0058,2.0,261.2045765,16.93917649,-99999.0,'11111222,11111222,99999999' 
TABS,ioos:station:wmo:42049:1,2014-09-01T02:00:00Z,28.3507,-96.0058,2.0,252.8430866,16.44161184,-99999.0,'11111222,11111222,99999999' 
TABS,ioos:station:wmo:42049:1,2014-09-01T02:30:00Z,28.3507,-96.0058,2.0,251.2371632,18.80953482,-99999.0,'11111222,11111222,99999999' 
TABS,ioos:station:wmo:42049:1,2014-09-01T03:00:00Z,28.3507,-96.0058,2.0,248.9244856,14.2105489,-99999.0,'11111222,11111222,99999999' 
TABS,ioos:station:wmo:42049:1,2014-09-01T03:30:00Z,28.3507,-96.0058,2.0,258.1734055,19.37117704,-99999.0,'11111222,11111222,99999999' 
TABS,ioos:station:wmo:42049:1,2014-09-01T04:00:00Z,28.3507,-96.0058,2.0,261.1456826,14.55341884,-99999.0,'11111222,11111222,99999999' 
TABS,ioos:station:wmo:42049:1,2014-09-01T04:30:00Z,28.3507,-96.0058,2.0,254.6306638,13.24360223,-99999.0,'11111222,11111222,99999999' 
TABS,ioos:station:wmo:42049:1,2014-09-01T05:00:00Z,28.3507,-96.0058,2.0,258.9096023,14.81668316,-99999.0,'11111222,11111222,99999999' 
TABS,ioos:station:wmo:42049:1,2014-09-01T05:30:00Z,28.3507,-96.0058,2.0,259.541503,14.37886296,-99999.0,'11111222,11111222,99999999' 
TABS,ioos:station:wmo:42049:1,2014-09-01T06:00:00Z,28.3507,-96.0058,2.0,262.6312163,14.89298493,-99999.0,'11111222,11111222,99999999' 
TABS,ioos:station:wmo:42049:1,2014-09-01T06:30:00Z,28.3507,-96.0058,2.0,252.0360702,18.44935229,-99999.0,'11111222,11111222,99999999' 
TABS,ioos:station:wmo:42049:1,2014-09-01T07:00:00Z,28.3507,-96.0058,2.0,249.0446389,14.45610252,-99999.0,'11111222,11111222,99999999' 
TABS,ioos:station:wmo:42049:1,2014-09-01T07:30:00Z,28.3507,-96.0058,2.0,257.0915307,17.36891764,-99999.0,'11111222,11111222,99999999' 
TABS,ioos:station:wmo:42049:1,2014-09-01T08:00:00Z,28.3507,-96.0058,2.0,256.0821333,16.38089131,-99999.0,'11111222,11111222,99999999' 
TABS,ioos:station:wmo:42049:1,2014-09-01T08:30:00Z,28.3507,-96.0058,2.0,259.0589283,14.91101942,-99999.0,'11111222,11111222,99999999' 
TABS,ioos:station:wmo:42049:1,2014-09-01T09:00:00Z,28.3507,-96.0058,2.0,250.5556567,16.16174496,-99999.0,'11111222,11111222,99999999' 
TABS,ioos:station:wmo:42049:1,2014-09-01T09:30:00Z,28.3507,-96.0058,2.0,261.1987255,17.51623533,-99999.0,'11111222,11111222,99999999' 
TABS,ioos:station:wmo:42049:1,2014-09-01T10:00:00Z,28.3507,-96.0058,2.0,259.0718271,15.87791548,-99999.0,'11111222,11111222,99999999' 
TABS,ioos:station:wmo:42049:1,2014-09-01T10:30:00Z,28.3507,-96.0058,2.0,254.1452291,13.83634706,-99999.0,'11111222,11111222,99999999' 
TABS,ioos:station:wmo:42049:1,2014-09-01T11:00:00Z,28.3507,-96.0058,2.0,253.3003739,15.2428475,-99999.0,'11111222,11111222,99999999' 
TABS,ioos:station:wmo:42049:1,2014-09-01T11:30:00Z,28.3507,-96.0058,2.0,251.2589636,14.22412739,-99999.0,'11111222,11111222,99999999' 
TABS,ioos:station:wmo:42049:1,2014-09-01T12:00:00Z,28.3507,-96.0058,2.0,246.3985647,11.5893917,-99999.0,'11111222,11111222,99999999' 
TABS,ioos:station:wmo:42049:1,2014-09-01T12:30:00Z,28.3507,-96.0058,2.0,253.7320837,15.63600013,-99999.0,'11111222,11111222,99999999' 
TABS,ioos:station:wmo:42049:1,2014-09-01T13:00:00Z,28.3507,-96.0058,2.0,245.7594186,18.85215372,-99999.0,'11111222,11111222,99999999' 
TABS,ioos:station:wmo:42049:1,2014-09-01T13:30:00Z,28.3507,-96.0058,2.0,256.453362,15.8818135,-99999.0,'11111222,11111222,99999999' 
TABS,ioos:station:wmo:42049:1,2014-09-01T14:00:00Z,28.3507,-96.0058,2.0,244.892489,12.65576944,-99999.0,'11111222,11111222,99999999' 
TABS,ioos:station:wmo:42049:1,2014-09-01T14:30:00Z,28.3507,-96.0058,2.0,265.8291523,7.700389601,-99999.0,'11133222,11111222,99999999' 
TABS,ioos:station:wmo:42049:1,2014-09-01T15:00:00Z,28.3507,-96.0058,2.0,251.5749359,17.65499646,-99999.0,'11111222,11111222,99999999' 
TABS,ioos:station:wmo:42049:1,2014-09-01T15:30:00Z,28.3507,-96.0058,2.0,258.1990959,17.40790625,-99999.0,'11111222,11111222,99999999' 
TABS,ioos:station:wmo:42049:1,2014-09-01T16:00:00Z,28.3507,-96.0058,2.0,256.6991888,10.95381212,-99999.0,'11111222,11111222,99999999' 
TABS,ioos:station:wmo:42049:1,2014-09-01T16:30:00Z,28.3507,-96.0058,2.0,265.8002016,18.29912839,-99999.0,'11111222,11111222,99999999' 
TABS,ioos:station:wmo:42049:1,2014-09-01T17:00:00Z,28.3507,-96.0058,2.0,274.3021691,22.66384786,-99999.0,'11111222,11111222,99999999' 
TABS,ioos:station:wmo:42049:1,2014-09-01T17:30:00Z,28.3507,-96.0058,2.0,276.5680424,15.30040849,-99999.0,'11111222,11111222,99999999' 
TABS,ioos:station:wmo:42049:1,2014-09-01T18:00:00Z,28.3507,-96.0058,2.0,274.9199327,20.75646405,-99999.0,'11111222,11111222,99999999' 
TABS,ioos:station:wmo:42049:1,2014-09-01T18:30:00Z,28.3507,-96.0058,2.0,277.3536889,20.23642755,-99999.0,'11111222,11111222,99999999' 
TABS,ioos:station:wmo:42049:1,2014-09-01T19:00:00Z,28.3507,-96.0058,2.0,276.5866794,15.17011865,-99999.0,'11111222,11111222,99999999' 
TABS,ioos:station:wmo:42049:1,2014-09-01T19:30:00Z,28.3507,-96.0058,2.0,276.355342,8.582738491,-99999.0,'11133222,11111222,99999999' 
TABS,ioos:station:wmo:42049:1,2014-09-01T20:00:00Z,28.3507,-96.0058,2.0,281.8414977,9.308071766,-99999.0,'11133222,11111222,99999999' 
TABS,ioos:station:wmo:42049:1,2014-09-01T20:30:00Z,28.3507,-96.0058,2.0,278.847516,9.492944749,-99999.0,'11133222,11111222,99999999' 
TABS,ioos:station:wmo:42049:1,2014-09-01T21:00:00Z,28.3507,-96.0058,2.0,268.8108084,10.12217862,-99999.0,'11111222,11111222,99999999' 
TABS,ioos:station:wmo:42049:1,2014-09-01T21:30:00Z,28.3507,-96.0058,2.0,291.6333341,8.842850219,-99999.0,'11133222,11111222,99999999' 
TABS,ioos:station:wmo:42049:1,2014-09-01T22:00:00Z,28.3507,-96.0058,2.0,295.3541154,10.78920294,-99999.0,'11111222,11111222,99999999' 
TABS,ioos:station:wmo:42049:1,2014-09-01T22:30:00Z,28.3507,-96.0058,2.0,292.3659234,12.82474171,-99999.0,'11111222,11111222,99999999' 
TABS,ioos:station:wmo:42049:1,2014-09-01T23:00:00Z,28.3507,-96.0058,2.0,294.9682266,10.58966005,-99999.0,'11111222,11111222,99999999' 
TABS,ioos:station:wmo:42049:1,2014-09-01T23:30:00Z,28.3507,-96.0058,2.0,305.8922473,8.085177796,-99999.0,'11133222,11111222,99999999' 
TABS,ioos:station:wmo:42049:1,2014-09-02T00:00:00Z,28.3507,-96.0058,2.0,277.535467,7.625850772,-99999.0,'11133222,11111222,99999999' 
TABS,ioos:station:wmo:42049:1,2014-09-02T00:30:00Z,28.3507,-96.0058,2.0,270.0004209,7.84,-99999.0,'11133222,11111222,99999999' 
TABS,ioos:station:wmo:42049:1,2014-09-02T01:00:00Z,28.3507,-96.0058,2.0,284.8652073,12.74657993,-99999.0,'11111222,11111222,99999999' 
TABS,ioos:station:wmo:42049:1,2014-09-02T01:30:00Z,28.3507,-96.0058,2.0,282.1890256,10.2306207,-99999.0,'11111222,11111222,99999999' 
TABS,ioos:station:wmo:42049:1,2014-09-02T02:00:00Z,28.3507,-96.0058,2.0,266.8918818,15.86332878,-99999.0,'11111222,11111222,99999999' 
TABS,ioos:station:wmo:42049:1,2014-09-02T02:30:00Z,28.3507,-96.0058,2.0,265.5655516,16.168392,-99999.0,'11111222,11111222,99999999' 
TABS,ioos:station:wmo:42049:1,2014-09-02T03:00:00Z,28.3507,-96.0058,2.0,248.9523173,16.79016974,-99999.0,'11111222,11111222,99999999' 
TABS,ioos:station:wmo:42049:1,2014-09-02T03:30:00Z,28.3507,-96.0058,2.0,262.4764083,16.95595766,-99999.0,'11111222,11111222,99999999' 
TABS,ioos:station:wmo:42049:1,2014-09-02T04:00:00Z,28.3507,-96.0058,2.0,258.1209064,17.78076489,-99999.0,'11111222,11111222,99999999' 
TABS,ioos:station:wmo:42049:1,2014-09-02T04:30:00Z,28.3507,-96.0058,2.0,251.359803,13.26583959,-99999.0,'11111222,11111222,99999999' 
TABS,ioos:station:wmo:42049:1,2014-09-02T05:00:00Z,28.3507,-96.0058,2.0,253.0375675,15.87039067,-99999.0,'11111222,11111222,99999999' 
TABS,ioos:station:wmo:42049:1,2014-09-02T05:30:00Z,28.3507,-96.0058,2.0,248.0918879,18.01062187,-99999.0,'11111222,11111222,99999999' 
TABS,ioos:station:wmo:42049:1,2014-09-02T06:00:00Z,28.3507,-96.0058,2.0,242.1007239,18.05890639,-99999.0,'11111222,11111222,99999999' 
TABS,ioos:station:wmo:42049:1,2014-09-02T06:30:00Z,28.3507,-96.0058,2.0,251.3327085,16.40286865,-99999.0,'11111222,11111222,99999999' 
TABS,ioos:station:wmo:42049:1,2014-09-02T07:00:00Z,28.3507,-96.0058,2.0,255.4332319,14.15498499,-99999.0,'11111222,11111222,99999999' 
TABS,ioos:station:wmo:42049:1,2014-09-02T07:30:00Z,28.3507,-96.0058,2.0,251.3684562,14.77424787,-99999.0,'11111222,11111222,99999999' 
TABS,ioos:station:wmo:42049:1,2014-09-02T08:00:00Z,28.3507,-96.0058,2.0,248.5847278,16.24128382,-99999.0,'11111222,11111222,99999999' 
TABS,ioos:station:wmo:42049:1,2014-09-02T08:30:00Z,28.3507,-96.0058,2.0,244.3198403,13.315138,-99999.0,'11111222,11111222,99999999' 
TABS,ioos:station:wmo:42049:1,2014-09-02T09:00:00Z,28.3507,-96.0058,2.0,249.1108307,14.10720738,-99999.0,'11111222,11111222,99999999' 
TABS,ioos:station:wmo:42049:1,2014-09-02T09:30:00Z,28.3507,-96.0058,2.0,245.2446852,13.87501712,-99999.0,'11111222,11111222,99999999' 
TABS,ioos:station:wmo:42049:1,2014-09-02T10:00:00Z,28.3507,-96.0058,2.0,251.3378734,12.78202644,-99999.0,'11111222,11111222,99999999' 
TABS,ioos:station:wmo:42049:1,2014-09-02T10:30:00Z,28.3507,-96.0058,2.0,257.5538604,11.97131989,-99999.0,'11111222,11111222,99999999' 
TABS,ioos:station:wmo:42049:1,2014-09-02T11:00:00Z,28.3507,-96.0058,2.0,262.4489515,11.18700139,-99999.0,'11111222,11111222,99999999' 
TABS,ioos:station:wmo:42049:1,2014-09-02T11:30:00Z,28.3507,-96.0058,2.0,244.9233325,15.14776551,-99999.0,'11111222,11111222,99999999' 
TABS,ioos:station:wmo:42049:1,2014-09-02T12:00:00Z,28.3507,-96.0058,2.0,248.6800323,7.728913248,-99999.0,'11133222,11111222,99999999' 
TABS,ioos:station:wmo:42049:1,2014-09-02T12:30:00Z,28.3507,-96.0058,2.0,258.4618888,7.399520255,-99999.0,'11133222,11111222,99999999' 
TABS,ioos:station:wmo:42049:1,2014-09-02T13:00:00Z,28.3507,-96.0058,2.0,255.8595989,9.374017282,-99999.0,'11133222,11111222,99999999' 
TABS,ioos:station:wmo:42049:1,2014-09-02T13:30:00Z,28.3507,-96.0058,2.0,234.5759487,4.675489279,-99999.0,'11133222,11111222,99999999' 
TABS,ioos:station:wmo:42049:1,2014-09-02T14:00:00Z,28.3507,-96.0058,2.0,248.889253,5.080993997,-99999.0,'11133222,11111222,99999999' 
TABS,ioos:station:wmo:42049:1,2014-09-02T14:30:00Z,28.3507,-96.0058,2.0,243.1717678,5.849615372,-99999.0,'11133222,11111222,99999999' 
TABS,ioos:station:wmo:42049:1,2014-09-02T15:00:00Z,28.3507,-96.0058,2.0,247.9897315,8.165078077,-99999.0,'11133222,11111222,99999999' 
TABS,ioos:station:wmo:42049:1,2014-09-02T15:30:00Z,28.3507,-96.0058,2.0,232.1401819,6.484967232,-99999.0,'11133222,11111222,99999999' 
TABS,ioos:station:wmo:42049:1,2014-09-02T16:00:00Z,28.3507,-96.0058,2.0,246.6144127,6.852919086,-99999.0,'11133222,11111222,99999999' 
TABS,ioos:station:wmo:42049:1,2014-09-02T16:30:00Z,28.3507,-96.0058,2.0,255.4153032,6.59241989,-99999.0,'11133222,11111222,99999999' 
TABS,ioos:station:wmo:42049:1,2014-09-02T17:00:00Z,28.3507,-96.0058,2.0,263.0377886,7.837786677,-99999.0,'11133222,11111222,99999999' 
TABS,ioos:station:wmo:42049:1,2014-09-02T17:30:00Z,28.3507,-96.0058,2.0,263.7307208,14.19487936,-99999.0,'11111222,11111222,99999999' 
TABS,ioos:station:wmo:42049:1,2014-09-02T18:00:00Z,28.3507,-96.0058,2.0,264.7886895,15.74507224,-99999.0,'11111222,11111222,99999999' 
TABS,ioos:station:wmo:42049:1,2014-09-02T18:30:00Z,28.3507,-96.0058,2.0,273.3515088,10.94872139,-99999.0,'11111222,11111222,99999999' 
TABS,ioos:station:wmo:42049:1,2014-09-02T19:00:00Z,28.3507,-96.0058,2.0,265.7813884,10.46835708,-99999.0,'11111222,11111222,99999999' 
TABS,ioos:station:wmo:42049:1,2014-09-02T19:30:00Z,28.3507,-96.0058,2.0,269.323334,15.25106226,-99999.0,'11111222,11111222,99999999' 
TABS,ioos:station:wmo:42049:1,2014-09-02T20:00:00Z,28.3507,-96.0058,2.0,261.7753191,11.18503017,-99999.0,'11111222,11111222,99999999' 
TABS,ioos:station:wmo:42049:1,2014-09-02T20:30:00Z,28.3507,-96.0058,2.0,264.5926424,9.763442016,-99999.0,'11133222,11111222,99999999' 
TABS,ioos:station:wmo:42049:1,2014-09-02T21:00:00Z,28.3507,-96.0058,2.0,269.9048756,12.10001653,-99999.0,'11111222,11111222,99999999' 
TABS,ioos:station:wmo:42049:1,2014-09-02T21:30:00Z,28.3507,-96.0058,2.0,272.5091926,7.767444882,-99999.0,'11133222,11111222,99999999' 
TABS,ioos:station:wmo:42049:1,2014-09-02T22:00:00Z,28.3507,-96.0058,2.0,261.78082,14.62015732,-99999.0,'11111222,11111222,99999999' 
TABS,ioos:station:wmo:42049:1,2014-09-02T22:30:00Z,28.3507,-96.0058,2.0,256.7590901,13.97139936,-99999.0,'11111222,11111222,99999999' 
TABS,ioos:station:wmo:42049:1,2014-09-02T23:00:00Z,28.3507,-96.0058,2.0,269.1481141,14.13156042,-99999.0,'11111222,11111222,99999999' 
TABS,ioos:station:wmo:42049:1,2014-09-02T23:30:00Z,28.3507,-96.0058,2.0,263.7033818,12.94810025,-99999.0,'11111222,11111222,99999999' 
TABS,ioos:station:wmo:42049:1,2014-09-03T00:00:00Z,28.3507,-96.0058,2.0,248.5743354,6.789167843,-99999.0,'11133222,11111222,99999999' 
TABS,ioos:station:wmo:42049:1,2014-09-03T00:30:00Z,28.3507,-96.0058,2.0,265.2014765,15.18320783,-99999.0,'11111222,11111222,99999999' 
TABS,ioos:station:wmo:42049:1,2014-09-03T01:00:00Z,28.3507,-96.0058,2.0,258.6106628,17.06604231,-99999.0,'11111222,11111222,99999999' 
TABS,ioos:station:wmo:42049:1,2014-09-03T01:30:00Z,28.3507,-96.0058,2.0,255.4101129,13.06115232,-99999.0,'11111222,11111222,99999999' 
TABS,ioos:station:wmo:42049:1,2014-09-03T02:00:00Z,28.3507,-96.0058,2.0,255.4812503,17.87065751,-99999.0,'11111222,11111222,99999999' 
TABS,ioos:station:wmo:42049:1,2014-09-03T02:30:00Z,28.3507,-96.0058,2.0,248.2300426,20.06067048,-99999.0,'11111222,11111222,99999999' 
TABS,ioos:station:wmo:42049:1,2014-09-03T03:00:00Z,28.3507,-96.0058,2.0,261.1523537,18.5304776,-99999.0,'11111222,11111222,99999999' 
TABS,ioos:station:wmo:42049:1,2014-09-03T03:30:00Z,28.3507,-96.0058,2.0,251.6313959,19.0084639,-99999.0,'11111222,11111222,99999999' 
TABS,ioos:station:wmo:42049:1,2014-09-03T04:00:00Z,28.3507,-96.0058,2.0,255.9983902,19.83941783,-99999.0,'11111222,11111222,99999999' 
TABS,ioos:station:wmo:42049:1,2014-09-03T04:30:00Z,28.3507,-96.0058,2.0,254.6740217,18.53926644,-99999.0,'11111222,11111222,99999999' 
TABS,ioos:station:wmo:42049:1,2014-09-03T05:00:00Z,28.3507,-96.0058,2.0,256.1576634,12.873865,-99999.0,'11111222,11111222,99999999' 
TABS,ioos:station:wmo:42049:1,2014-09-03T05:30:00Z,28.3507,-96.0058,2.0,270.5617319,14.29068578,-99999.0,'11111222,11111222,99999999' 
TABS,ioos:station:wmo:42049:1,2014-09-03T06:00:00Z,28.3507,-96.0058,2.0,250.0286345,16.16188417,-99999.0,'11111222,11111222,99999999' 
TABS,ioos:station:wmo:42049:1,2014-09-03T06:30:00Z,28.3507,-96.0058,2.0,246.5545357,14.95462805,-99999.0,'11111222,11111222,99999999' 
TABS,ioos:station:wmo:42049:1,2014-09-03T07:00:00Z,28.3507,-96.0058,2.0,252.7090875,16.14981114,-99999.0,'11111222,11111222,99999999' 
TABS,ioos:station:wmo:42049:1,2014-09-03T07:30:00Z,28.3507,-96.0058,2.0,246.1659545,14.45247384,-99999.0,'11111222,11111222,99999999' 
TABS,ioos:station:wmo:42049:1,2014-09-03T08:00:00Z,28.3507,-96.0058,2.0,235.7801687,15.0080545,-99999.0,'11111222,11111222,99999999' 
TABS,ioos:station:wmo:42049:1,2014-09-03T08:30:00Z,28.3507,-96.0058,2.0,259.4004196,13.75468284,-99999.0,'11111222,11111222,99999999' 
TABS,ioos:station:wmo:42049:1,2014-09-03T09:00:00Z,28.3507,-96.0058,2.0,267.7106681,13.5207877,-99999.0,'11111222,11111222,99999999' 
TABS,ioos:station:wmo:42049:1,2014-09-03T09:30:00Z,28.3507,-96.0058,2.0,253.6986192,14.6072037,-99999.0,'11111222,11111222,99999999' 
TABS,ioos:station:wmo:42049:1,2014-09-03T10:00:00Z,28.3507,-96.0058,2.0,260.947769,13.53860406,-99999.0,'11111222,11111222,99999999' 
TABS,ioos:station:wmo:42049:1,2014-09-03T10:30:00Z,28.3507,-96.0058,2.0,251.8844826,14.7301188,-99999.0,'11111222,11111222,99999999' 
TABS,ioos:station:wmo:42049:1,2014-09-03T11:00:00Z,28.3507,-96.0058,2.0,250.8141183,14.48447445,-99999.0,'11111222,11111222,99999999' 
TABS,ioos:station:wmo:42049:1,2014-09-03T11:30:00Z,28.3507,-96.0058,2.0,247.832139,17.14745754,-99999.0,'11111222,11111222,99999999' 
TABS,ioos:station:wmo:42049:1,2014-09-03T12:00:00Z,28.3507,-96.0058,2.0,255.7865306,13.35892586,-99999.0,'11111222,11111222,99999999' 
TABS,ioos:station:wmo:42049:1,2014-09-03T12:30:00Z,28.3507,-96.0058,2.0,244.6112468,18.07571299,-99999.0,'11111222,11111222,99999999' 
TABS,ioos:station:wmo:42049:1,2014-09-03T13:00:00Z,28.3507,-96.0058,2.0,250.9534721,13.63651715,-99999.0,'11111222,11111222,99999999' 
TABS,ioos:station:wmo:42049:1,2014-09-03T13:30:00Z,28.3507,-96.0058,2.0,247.3368429,16.42846615,-99999.0,'11111222,11111222,99999999' 
TABS,ioos:station:wmo:42049:1,2014-09-03T14:00:00Z,28.3507,-96.0058,2.0,251.4926713,20.13107548,-99999.0,'11111222,11111222,99999999' 
TABS,ioos:station:wmo:42049:1,2014-09-03T14:30:00Z,28.3507,-96.0058,2.0,245.971951,10.70784759,-99999.0,'11111222,11111222,99999999' 
TABS,ioos:station:wmo:42049:1,2014-09-03T15:00:00Z,28.3507,-96.0058,2.0,245.2342995,12.24627699,-99999.0,'11111222,11111222,99999999' 
TABS,ioos:station:wmo:42049:1,2014-09-03T15:30:00Z,28.3507,-96.0058,2.0,245.0396062,9.739661185,-99999.0,'11133222,11111222,99999999' 
TABS,ioos:station:wmo:42049:1,2014-09-03T16:00:00Z,28.3507,-96.0058,2.0,235.2763758,10.30523168,-99999.0,'11111222,11111222,99999999' 
TABS,ioos:station:wmo:42049:1,2014-09-03T16:30:00Z,28.3507,-96.0058,2.0,239.3696522,15.89818858,-99999.0,'11111222,11111222,99999999' 
TABS,ioos:station:wmo:42049:1,2014-09-03T17:00:00Z,28.3507,-96.0058,2.0,248.5050977,18.72207253,-99999.0,'11111222,11111222,99999999' 
TABS,ioos:station:wmo:42049:1,2014-09-03T17:30:00Z,28.3507,-96.0058,2.0,252.4263934,13.87764389,-99999.0,'11111222,11111222,99999999' 
TABS,ioos:station:wmo:42049:1,2014-09-03T18:00:00Z,28.3507,-96.0058,2.0,260.9939179,17.12105429,-99999.0,'11111222,11111222,99999999' 
TABS,ioos:station:wmo:42049:1,2014-09-03T18:30:00Z,28.3507,-96.0058,2.0,252.4758593,15.90826829,-99999.0,'11111222,11111222,99999999' 
TABS,ioos:station:wmo:42049:1,2014-09-03T19:00:00Z,28.3507,-96.0058,2.0,262.5046544,16.32951316,-99999.0,'11111222,11111222,99999999' 
TABS,ioos:station:wmo:42049:1,2014-09-03T19:30:00Z,28.3507,-96.0058,2.0,265.8245721,16.89483353,-99999.0,'11111222,11111222,99999999' 
TABS,ioos:station:wmo:42049:1,2014-09-03T20:00:00Z,28.3507,-96.0058,2.0,256.5486762,31.33966337,-99999.0,'11111222,11111222,99999999' 
TABS,ioos:station:wmo:42049:1,2014-09-03T20:30:00Z,28.3507,-96.0058,2.0,258.1063763,25.81414341,-99999.0,'11111222,11111222,99999999' 
TABS,ioos:station:wmo:42049:1,2014-09-03T21:00:00Z,28.3507,-96.0058,2.0,260.7393792,24.23584948,-99999.0,'11111222,11111222,99999999' 
TABS,ioos:station:wmo:42049:1,2014-09-03T21:30:00Z,28.3507,-96.0058,2.0,261.3562339,24.15432259,-99999.0,'11111222,11111222,99999999' 
TABS,ioos:station:wmo:42049:1,2014-09-03T22:00:00Z,28.3507,-96.0058,2.0,252.5758131,22.04134524,-99999.0,'11111222,11111222,99999999' 
TABS,ioos:station:wmo:42049:1,2014-09-03T22:30:00Z,28.3507,-96.0058,2.0,271.369854,29.70848532,-99999.0,'11111222,11111222,99999999' 
TABS,ioos:station:wmo:42049:1,2014-09-03T23:00:00Z,28.3507,-96.0058,2.0,264.31314,23.61621477,-99999.0,'11111222,11111222,99999999' 
TABS,ioos:station:wmo:42049:1,2014-09-03T23:30:00Z,28.3507,-96.0058,2.0,266.6068871,21.79820405,-99999.0,'11111222,11111222,99999999' 
TABS,ioos:station:wmo:42049:1,2014-09-04T00:00:00Z,28.3507,-96.0058,2.0,255.1029092,25.51762528,-99999.0,'11111222,11111222,99999999' 
TABS,ioos:station:wmo:42049:1,2014-09-04T00:30:00Z,28.3507,-96.0058,2.0,253.3988416,21.73598399,-99999.0,'11111222,11111222,99999999' 
TABS,ioos:station:wmo:42049:1,2014-09-04T01:00:00Z,28.3507,-96.0058,2.0,265.2010983,25.94092134,-99999.0,'11111222,11111222,99999999' 
TABS,ioos:station:wmo:42049:1,2014-09-04T01:30:00Z,28.3507,-96.0058,2.0,268.1847602,28.73441317,-99999.0,'11111222,11111222,99999999' 
TABS,ioos:station:wmo:42049:1,2014-09-04T02:00:00Z,28.3507,-96.0058,2.0,253.0416353,25.02825603,-99999.0,'11111222,11111222,99999999' 
TABS,ioos:station:wmo:42049:1,2014-09-04T02:30:00Z,28.3507,-96.0058,2.0,269.085153,28.82367083,-99999.0,'11111222,11111222,99999999' 
TABS,ioos:station:wmo:42049:1,2014-09-04T03:00:00Z,28.3507,-96.0058,2.0,264.54407,28.6095928,-99999.0,'11111222,11111222,99999999' 
TABS,ioos:station:wmo:42049:1,2014-09-04T03:30:00Z,28.3507,-96.0058,2.0,261.710052,26.42609695,-99999.0,'11111222,11111222,99999999' 
TABS,ioos:station:wmo:42049:1,2014-09-04T04:00:00Z,28.3507,-96.0058,2.0,260.7733707,25.13517456,-99999.0,'11111222,11111222,99999999' 
TABS,ioos:station:wmo:42049:1,2014-09-04T04:30:00Z,28.3507,-96.0058,2.0,242.5070273,23.48179082,-99999.0,'11111222,11111222,99999999' 
TABS,ioos:station:wmo:42049:1,2014-09-04T05:00:00Z,28.3507,-96.0058,2.0,248.9085963,29.20655064,-99999.0,'11111222,11111222,99999999' 
TABS,ioos:station:wmo:42049:1,2014-09-04T05:30:00Z,28.3507,-96.0058,2.0,244.0237524,26.53011308,-99999.0,'11111222,11111222,99999999' 
TABS,ioos:station:wmo:42049:1,2014-09-04T06:00:00Z,28.3507,-96.0058,2.0,241.5784363,21.26274677,-99999.0,'11111222,11111222,99999999' 
TABS,ioos:station:wmo:42049:1,2014-09-04T06:30:00Z,28.3507,-96.0058,2.0,250.1311797,22.62685352,-99999.0,'11111222,11111222,99999999' 
TABS,ioos:station:wmo:42049:1,2014-09-04T07:00:00Z,28.3507,-96.0058,2.0,253.9573933,21.13295294,-99999.0,'11111222,11111222,99999999' 
TABS,ioos:station:wmo:42049:1,2014-09-04T07:30:00Z,28.3507,-96.0058,2.0,249.1289081,21.95022779,-99999.0,'11111222,11111222,99999999' 
TABS,ioos:station:wmo:42049:1,2014-09-04T08:00:00Z,28.3507,-96.0058,2.0,255.5904435,24.59363332,-99999.0,'11111222,11111222,99999999' 
TABS,ioos:station:wmo:42049:1,2014-09-04T08:30:00Z,28.3507,-96.0058,2.0,260.633091,31.4594342,-99999.0,'11111222,11111222,99999999' 
TABS,ioos:station:wmo:42049:1,2014-09-04T09:00:00Z,28.3507,-96.0058,2.0,259.0723857,29.06702083,-99999.0,'11111222,11111222,99999999' 
TABS,ioos:station:wmo:42049:1,2014-09-04T09:30:00Z,28.3507,-96.0058,2.0,251.8227318,28.78650552,-99999.0,'11111222,11111222,99999999' 
TABS,ioos:station:wmo:42049:1,2014-09-04T10:00:00Z,28.3507,-96.0058,2.0,250.9881104,30.48273774,-99999.0,'11111222,11111222,99999999' 
TABS,ioos:station:wmo:42049:1,2014-09-04T10:30:00Z,28.3507,-96.0058,2.0,251.4651443,27.30630879,-99999.0,'11111222,11111222,99999999' 
TABS,ioos:station:wmo:42049:1,2014-09-04T11:00:00Z,28.3507,-96.0058,2.0,250.9121658,24.15820565,-99999.0,'11111222,11111222,99999999' 
TABS,ioos:station:wmo:42049:1,2014-09-04T11:30:00Z,28.3507,-96.0058,2.0,258.0272959,22.22340433,-99999.0,'11111222,11111222,99999999' 
TABS,ioos:station:wmo:42049:1,2014-09-04T12:00:00Z,28.3507,-96.0058,2.0,245.9378566,21.09283291,-99999.0,'11111222,11111222,99999999' 
TABS,ioos:station:wmo:42049:1,2014-09-04T12:30:00Z,28.3507,-96.0058,2.0,257.0867744,25.73069956,-99999.0,'11111222,11111222,99999999' 
TABS,ioos:station:wmo:42049:1,2014-09-04T13:00:00Z,28.3507,-96.0058,2.0,255.3699795,22.01371391,-99999.0,'11111222,11111222,99999999' 
TABS,ioos:station:wmo:42049:1,2014-09-04T13:30:00Z,28.3507,-96.0058,2.0,255.4921978,25.06932987,-99999.0,'11111222,11111222,99999999' 
TABS,ioos:station:wmo:42049:1,2014-09-04T14:00:00Z,28.3507,-96.0058,2.0,253.7072651,24.95200393,-99999.0,'11111222,11111222,99999999' 
TABS,ioos:station:wmo:42049:1,2014-09-04T14:30:00Z,28.3507,-96.0058,2.0,245.8662023,23.82215775,-99999.0,'11111222,11111222,99999999' 
TABS,ioos:station:wmo:42049:1,2014-09-04T15:00:00Z,28.3507,-96.0058,2.0,263.8106897,23.83893664,-99999.0,'11111222,11111222,99999999' 
TABS,ioos:station:wmo:42049:1,2014-09-04T15:30:00Z,28.3507,-96.0058,2.0,265.3306694,22.60501051,-99999.0,'11111222,11111222,99999999' 
TABS,ioos:station:wmo:42049:1,2014-09-04T16:00:00Z,28.3507,-96.0058,2.0,270.0625862,27.65001627,-99999.0,'11111222,11111222,99999999' 